North Adams, MA

3:43 AM EST on February 19, 2018 (GMT -0500)
Harriman And West

Weather History for KAQW - January, 2013

Change the Weather History Date:

Saturday, January 5, 2013

  Actual Average Record
Temperature  
Mean Temperature 27 °F -  
Max Temperature 36 °F 31 °F 57 °F (1997)
Min Temperature 18 °F 17 °F 0 °F (2014)
Degree Days  
Heating Degree Days 38    
Moisture  
Dew Point 16 °F    
Average Humidity 58    
Maximum Humidity 78    
Minimum Humidity 35    
Precipitation  
Precipitation 0.00 in - - ()
Sea Level Pressure  
Sea Level Pressure 30.11 in    
Wind  
Wind Speed 14 mph (West)    
Max Wind Speed 21 mph    
Max Gust Speed 31 mph    
Visibility 10 miles    
Events      
Averages and records for this station are not official NWS values.
T = Trace of Precipitation, MM = Missing Value Source: NWS Daily Summary

Daily Weather History Graph

Daily Weather History Graph

Search for Another Location

Airport or City:

Trip Planner

Search our weather history database for the weather conditions in past years. The results will help you decide how hot, cold, wet, or windy it might be!

Date:

Astronomy

Jan. 05, 2013 Rise Set
Actual Time 7:23 AM EST 4:33 PM EST
Civil Twilight 6:51 AM EST 5:05 PM EST
Nautical Twilight 6:15 AM EST 5:40 PM EST
Astronomical Twilight 5:41 AM EST 6:15 PM EST
Moon 12:21 AM EST (1/5) 11:26 AM EST (1/5)
Length of Visible Light 10h 14m
Length of Day
9h 10m
Last Quarter, 44% of the Moon is Illuminated
Jan 5
Last Quarter
Jan 11
New
Jan 18
First Quarter
Jan 26
Full
Feb 3
Last Quarter

Hourly Weather History & Observations

Time (EST) Temp. Windchill Dew Point Humidity Pressure Visibility Wind Dir Wind Speed Gust Speed Precip Events Conditions
12:52 AM 32.0 °F 20.5 °F 18.0 °F 56% 29.91 in 10.0 mi West 18.4 mph 31.1 mph N/A   Overcast
1:18 AM 32.0 °F 21.6 °F 19.4 °F 60% 29.89 in 8.0 mi West 15.0 mph 28.8 mph 0.00 in   Overcast
1:52 AM 32.0 °F 20.1 °F 19.0 °F 59% 29.92 in 9.0 mi West 19.6 mph 27.6 mph 0.00 in   Overcast
2:52 AM 32.0 °F 19.8 °F 19.9 °F 61% 29.93 in 9.0 mi West 20.7 mph 29.9 mph N/A   Overcast
3:52 AM 32.0 °F 20.5 °F 19.9 °F 61% 29.95 in 9.0 mi West 18.4 mph 27.6 mph N/A   Overcast
3:59 AM 32.0 °F 20.5 °F 21.2 °F 64% 29.93 in 9.0 mi West 18.4 mph 27.6 mph N/A   Overcast
4:52 AM 33.1 °F 22.6 °F 21.0 °F 61% 29.97 in 10.0 mi West 16.1 mph 24.2 mph 0.00 in   Overcast
5:52 AM 33.1 °F 21.2 °F 19.9 °F 59% 30.01 in 10.0 mi West 20.7 mph 29.9 mph N/A   Overcast
6:52 AM 33.1 °F 22.6 °F 19.9 °F 59% 30.04 in 10.0 mi West 16.1 mph 26.5 mph N/A   Overcast
7:52 AM 32.0 °F 21.2 °F 19.9 °F 61% 30.07 in 10.0 mi West 16.1 mph 26.5 mph N/A   Overcast
8:52 AM 34.0 °F 23.4 °F 19.9 °F 56% 30.12 in 10.0 mi West 17.3 mph 25.3 mph N/A   Overcast
9:52 AM 33.1 °F 23.0 °F 19.9 °F 59% 30.16 in 10.0 mi West 15.0 mph 23.0 mph N/A   Mostly Cloudy
10:52 AM 34.0 °F 25.5 °F 18.0 °F 52% 30.19 in 10.0 mi West 11.5 mph 19.6 mph N/A   Mostly Cloudy
11:52 AM 34.0 °F 24.2 °F 14.0 °F 44% 30.19 in 10.0 mi West 15.0 mph 24.2 mph N/A   Scattered Clouds
12:52 PM 36.0 °F 27.1 °F 14.0 °F 41% 30.20 in 10.0 mi West 13.8 mph 24.2 mph N/A   Partly Cloudy
1:52 PM 35.1 °F 27.9 °F 10.0 °F 35% 30.18 in 10.0 mi WNW 9.2 mph 21.9 mph N/A   Clear
2:52 PM 35.1 °F 28.6 °F 10.9 °F 37% 30.18 in 10.0 mi WNW 8.1 mph - N/A   Clear
3:52 PM 33.1 °F 23.9 °F 12.9 °F 43% 30.21 in 10.0 mi West 12.7 mph - N/A   Clear
4:52 PM 28.9 °F 22.8 °F 12.0 °F 49% 30.22 in 10.0 mi West 5.8 mph - N/A   Clear
5:52 PM 28.0 °F 21.7 °F 12.9 °F 53% 30.25 in 10.0 mi West 5.8 mph - N/A   Clear
6:52 PM 25.0 °F - 12.9 °F 60% 30.26 in 10.0 mi Calm Calm - N/A   Clear
7:52 PM 21.0 °F - 12.0 °F 68% 30.25 in 10.0 mi Calm Calm - N/A   Clear
8:52 PM 18.0 °F - 10.9 °F 74% 30.24 in 10.0 mi Calm Calm - N/A   Clear
9:52 PM 19.0 °F - 12.0 °F 74% 30.23 in 10.0 mi Calm Calm - N/A   Clear
10:52 PM 18.0 °F 12.7 °F 12.0 °F 78% 30.21 in 10.0 mi North 3.5 mph - N/A   Clear
11:52 PM 19.9 °F - 12.9 °F 74% 30.19 in 10.0 mi Calm Calm - N/A   Clear